| time (UTC) | temp F | wind direction | speed MPH | gust MPH | rain 1hr in | rain 24hr in | rain mn in | humidity % | barometer mb |
| 20260902221010 | 68 | 80 | 2.0 | 4.0 | 0.00 | 0.00 | 0.00 | 93 | 1022.7 |
| 20260902220518 | 68 | 80 | 2.0 | 4.0 | 0.00 | 0.00 | 0.00 | 93 | 1022.6 |
| 20260902220023 | 68 | 80 | 2.0 | 4.0 | 0.00 | 0.00 | 0.00 | 93 | 1022.7 |
| 20260902215512 | 68 | 80 | 0.0 | 1.0 | 0.00 | 0.00 | 0.00 | 93 | 1022.7 |
| 20260902215015 | 68 | 80 | 0.0 | 1.0 | 0.00 | 0.00 | 0.00 | 93 | 1022.7 |
| 20260902214524 | 68 | 80 | 0.0 | 1.0 | 0.00 | 0.00 | 0.00 | 92 | 1022.7 |
| 20260902214012 | 68 | 80 | 0.0 | 2.0 | 0.00 | 0.00 | 0.00 | 92 | 1022.8 |
| 20260902213519 | 68 | 80 | 0.0 | 5.0 | 0.00 | 0.00 | 0.00 | 92 | 1022.7 |
| 20260902213028 | 68 | 80 | 2.0 | 5.0 | 0.00 | 0.00 | 0.00 | 92 | 1022.6 |
| 20260902212516 | 68 | 80 | 2.0 | 5.0 | 0.00 | 0.00 | 0.00 | 92 | 1022.6 |
| 20260902212023 | 68 | 80 | 3.0 | 5.0 | 0.00 | 0.00 | 0.00 | 92 | 1022.7 |
| 20260902211511 | 68 | 84 | 1.0 | 6.0 | 0.00 | 0.00 | 0.00 | 92 | 1022.8 |
| 20260902211037 | 68 | 82 | 3.0 | 6.0 | 0.00 | 0.00 | 0.00 | 92 | 1022.7 |
| 20260902210524 | 68 | 83 | 2.0 | 6.0 | 0.00 | 0.00 | 0.00 | 92 | 1022.7 |
| 20260902210012 | 68 | 82 | 2.0 | 6.0 | 0.00 | 0.00 | 0.00 | 92 | 1022.7 |
| 20260902205521 | 68 | 82 | 0.0 | 7.0 | 0.00 | 0.00 | 0.00 | 92 | 1022.8 |
| 20260902205049 | 68 | 83 | 2.0 | 7.0 | 0.00 | 0.00 | 0.00 | 92 | 1022.8 |
| 20260902204515 | 68 | 78 | 0.0 | 5.0 | 0.00 | 0.00 | 0.00 | 92 | 1022.8 |
| 20260902204023 | 68 | 78 | 3.0 | 8.0 | 0.00 | 0.00 | 0.00 | 92 | 1022.9 |
| 20260902203512 | 69 | 84 | 3.0 | 8.0 | 0.00 | 0.00 | 0.00 | 91 | 1022.8 |
| 20260902203019 | 69 | 83 | 2.0 | 6.0 | 0.00 | 0.00 | 0.00 | 91 | 1022.8 |
| 20260902202528 | 69 | 79 | 1.0 | 7.0 | 0.00 | 0.00 | 0.00 | 91 | 1022.8 |
| 20260902202036 | 69 | 47 | 3.0 | 7.0 | 0.00 | 0.00 | 0.00 | 91 | 1022.7 |
| 20260902201524 | 69 | 40 | 3.0 | 7.0 | 0.00 | 0.00 | 0.00 | 91 | 1022.7 |
| 20260902201033 | 69 | 50 | 4.0 | 7.0 | 0.00 | 0.00 | 0.00 | 90 | 1022.7 |
| 20260902200520 | 69 | 35 | 3.0 | 7.0 | 0.00 | 0.00 | 0.00 | 90 | 1022.6 |
| 20260902200028 | 69 | 63 | 2.0 | 7.0 | 0.00 | 0.00 | 0.00 | 90 | 1022.5 |
| 20260902195516 | 69 | 51 | 3.0 | 7.0 | 0.00 | 0.00 | 0.00 | 89 | 1022.5 |
| 20260902195025 | 69 | 78 | 3.0 | 6.0 | 0.00 | 0.00 | 0.00 | 89 | 1022.5 |
| 20260902194534 | 69 | 54 | 2.0 | 10.0 | 0.00 | 0.00 | 0.00 | 89 | 1022.5 |
| 20260902194022 | 69 | 49 | 1.0 | 9.0 | 0.00 | 0.00 | 0.00 | 89 | 1022.5 |
| 20260902193510 | 70 | 62 | 4.0 | 9.0 | 0.00 | 0.00 | 0.00 | 89 | 1022.3 |
| 20260902193019 | 70 | 44 | 5.0 | 9.0 | 0.00 | 0.00 | 0.00 | 88 | 1022.2 |
| 20260902192546 | 70 | 37 | 3.0 | 8.0 | 0.00 | 0.00 | 0.00 | 88 | 1022.3 |
| 20260902192012 | 70 | 41 | 4.0 | 6.0 | 0.00 | 0.00 | 0.00 | 87 | 1022.3 |
| 20260902191520 | 70 | 59 | 3.0 | 7.0 | 0.00 | 0.00 | 0.00 | 87 | 1022.2 |
| 20260902191009 | 70 | 84 | 3.0 | 8.0 | 0.00 | 0.00 | 0.00 | 87 | 1022.3 |
| 20260902190517 | 70 | 81 | 3.0 | 9.0 | 0.00 | 0.00 | 0.00 | 86 | 1022.2 |
| 20260902190024 | 70 | 49 | 3.0 | 9.0 | 0.00 | 0.00 | 0.00 | 86 | 1022.1 |
| 20260902185516 | 71 | 48 | 4.0 | 11.0 | 0.00 | 0.00 | 0.00 | 86 | 1022.1 |
| 20260902185024 | 71 | 63 | 6.0 | 11.0 | 0.00 | 0.00 | 0.00 | 85 | 1022.1 |
| 20260902184513 | 71 | 90 | 5.0 | 12.0 | 0.00 | 0.00 | 0.00 | 85 | 1022.0 |
| 20260902184017 | 71 | 66 | 4.0 | 12.0 | 0.00 | 0.00 | 0.00 | 85 | 1022.0 |
| 20260902183524 | 71 | 32 | 7.0 | 12.0 | 0.00 | 0.00 | 0.00 | 84 | 1022.1 |
| 20260902183012 | 71 | 46 | 5.0 | 14.0 | 0.00 | 0.00 | 0.00 | 84 | 1022.2 |
| 20260902182541 | 71 | 38 | 7.0 | 14.0 | 0.00 | 0.00 | 0.00 | 84 | 1022.2 |
| 20260902182028 | 72 | 64 | 5.0 | 13.0 | 0.00 | 0.00 | 0.00 | 84 | 1022.3 |
| 20260902181516 | 72 | 59 | 7.0 | 15.0 | 0.00 | 0.00 | 0.00 | 84 | 1022.2 |
| 20260902181024 | 72 | 45 | 8.0 | 16.0 | 0.00 | 0.00 | 0.00 | 83 | 1022.3 |
| 20260902180534 | 72 | 40 | 7.0 | 16.0 | 0.00 | 0.00 | 0.00 | 83 | 1022.3 |
| 20260902180016 | 72 | 55 | 9.0 | 16.0 | 0.00 | 0.00 | 0.00 | 83 | 1022.3 |
| 20260902175524 | 72 | 43 | 6.0 | 13.0 | 0.00 | 0.00 | 0.00 | 83 | 1022.1 |
| 20260902175034 | 72 | 34 | 7.0 | 13.0 | 0.00 | 0.00 | 0.00 | 83 | 1022.2 |
| 20260902174521 | 72 | 46 | 7.0 | 12.0 | 0.00 | 0.00 | 0.00 | 82 | 1022.1 |
| 20260902174010 | 73 | 42 | 7.0 | 13.0 | 0.00 | 0.00 | 0.00 | 82 | 1022.1 |
| 20260902173518 | 73 | 5 | 6.0 | 16.0 | 0.00 | 0.00 | 0.00 | 82 | 1022.1 |
| 20260902173026 | 73 | 51 | 6.0 | 16.0 | 0.00 | 0.00 | 0.00 | 81 | 1022.2 |
| 20260902172515 | 73 | 24 | 4.0 | 13.0 | 0.00 | 0.00 | 0.00 | 82 | 1022.0 |
| 20260902172020 | 73 | 57 | 6.0 | 16.0 | 0.00 | 0.00 | 0.00 | 82 | 1022.0 |
| 20260902171508 | 73 | 67 | 6.0 | 16.0 | 0.00 | 0.00 | 0.00 | 82 | 1021.9 |
| 20260902171017 | 73 | 45 | 8.0 | 15.0 | 0.00 | 0.00 | 0.00 | 82 | 1021.9 |
| 20260902170525 | 73 | 64 | 6.0 | 18.0 | 0.00 | 0.00 | 0.00 | 83 | 1022.0 |
| 20260902170033 | 73 | 53 | 10.0 | 18.0 | 0.00 | 0.00 | 0.00 | 82 | 1021.9 |
| 20260902165542 | 73 | 52 | 9.0 | 15.0 | 0.00 | 0.00 | 0.00 | 82 | 1021.9 |
| 20260902165010 | 73 | 44 | 11.0 | 15.0 | 0.00 | 0.00 | 0.00 | 82 | 1021.9 |
| 20260902164518 | 73 | 18 | 8.0 | 16.0 | 0.00 | 0.00 | 0.00 | 82 | 1021.9 |
| 20260902164026 | 73 | 62 | 7.0 | 16.0 | 0.00 | 0.00 | 0.00 | 82 | 1021.9 |
| 20260902163535 | 73 | 55 | 9.0 | 16.0 | 0.00 | 0.00 | 0.00 | 82 | 1022.0 |
| 20260902163040 | 73 | 59 | 11.0 | 18.0 | 0.00 | 0.00 | 0.00 | 82 | 1022.0 |
| 20260902162527 | 73 | 51 | 11.0 | 18.0 | 0.00 | 0.00 | 0.00 | 81 | 1021.9 |
| 20260902162016 | 73 | 40 | 11.0 | 16.0 | 0.00 | 0.00 | 0.00 | 80 | 1021.9 |
| 20260902161545 | 73 | 19 | 8.0 | 17.0 | 0.00 | 0.00 | 0.00 | 80 | 1021.9 |
| 20260902161011 | 73 | 34 | 9.0 | 17.0 | 0.00 | 0.00 | 0.00 | 79 | 1021.8 |
| 20260902160541 | 73 | 35 | 8.0 | 15.0 | 0.00 | 0.00 | 0.00 | 79 | 1021.9 |
| 20260902160026 | 73 | 30 | 8.0 | 18.0 | 0.00 | 0.00 | 0.00 | 79 | 1022.0 |
| 20260902155515 | 73 | 51 | 10.0 | 18.0 | 0.00 | 0.00 | 0.00 | 79 | 1022.0 |
| 20260902155023 | 73 | 31 | 10.0 | 18.0 | 0.00 | 0.00 | 0.00 | 78 | 1022.0 |
| 20260902154511 | 73 | 50 | 10.0 | 18.0 | 0.00 | 0.00 | 0.00 | 78 | 1022.0 |
| 20260902154018 | 73 | 30 | 9.0 | 16.0 | 0.00 | 0.00 | 0.00 | 79 | 1021.9 |
| 20260902153526 | 73 | 114 | 7.0 | 18.0 | 0.00 | 0.00 | 0.00 | 79 | 1021.9 |
| 20260902153013 | 73 | 44 | 10.0 | 18.0 | 0.00 | 0.00 | 0.00 | 79 | 1022.1 |
| 20260902152520 | 73 | 65 | 9.0 | 17.0 | 0.00 | 0.00 | 0.00 | 79 | 1022.1 |
| 20260902152027 | 73 | 51 | 9.0 | 18.0 | 0.00 | 0.00 | 0.00 | 79 | 1022.2 |
| 20260902151516 | 73 | 41 | 11.0 | 20.0 | 0.00 | 0.00 | 0.00 | 79 | 1022.1 |
| 20260902150018 | 74 | 65 | 8.0 | 18.0 | 0.00 | 0.00 | 0.00 | 78 | 1022.2 |
| 20260902145551 | 74 | 87 | 7.0 | 18.0 | 0.00 | 0.00 | 0.00 | 78 | 1022.1 |
| 20260902141519 | 74 | 48 | 9.0 | 15.0 | 0.00 | 0.00 | 0.00 | 75 | 1022.1 |
| 20260902141027 | 74 | 58 | 7.0 | 18.0 | 0.00 | 0.00 | 0.00 | 76 | 1022.2 |
| 20260902140535 | 74 | 36 | 11.0 | 19.0 | 0.00 | 0.00 | 0.00 | 76 | 1022.2 |
| 20260902140023 | 74 | 43 | 13.0 | 19.0 | 0.00 | 0.00 | 0.00 | 74 | 1022.3 |
| 20260902135512 | 74 | 51 | 9.0 | 16.0 | 0.00 | 0.00 | 0.00 | 76 | 1022.2 |
| 20260902135020 | 74 | 37 | 6.0 | 18.0 | 0.00 | 0.00 | 0.00 | 75 | 1022.2 |
| 20260902134509 | 73 | 43 | 12.0 | 18.0 | 0.00 | 0.00 | 0.00 | 73 | 1022.2 |
| 20260902134014 | 74 | 19 | 10.0 | 17.0 | 0.00 | 0.00 | 0.00 | 72 | 1022.2 |
| 20260902133522 | 74 | 62 | 9.0 | 16.0 | 0.00 | 0.00 | 0.00 | 72 | 1022.3 |
| 20260902133011 | 74 | 76 | 8.0 | 16.0 | 0.00 | 0.00 | 0.00 | 73 | 1022.2 |
| 20260902132517 | 74 | 54 | 10.0 | 17.0 | 0.00 | 0.00 | 0.00 | 78 | 1022.2 |
| 20260902132026 | 74 | 22 | 8.0 | 17.0 | 0.00 | 0.00 | 0.00 | 74 | 1022.2 |
| 20260902131513 | 74 | 45 | 8.0 | 15.0 | 0.00 | 0.00 | 0.00 | 75 | 1022.2 |
| 20260902131021 | 73 | 126 | 8.0 | 15.0 | 0.00 | 0.00 | 0.00 | 75 | 1022.3 |
| 20260902130531 | 73 | 22 | 9.0 | 15.0 | 0.00 | 0.00 | 0.00 | 75 | 1022.3 |
| 20260902130017 | 74 | 19 | 9.0 | 15.0 | 0.00 | 0.00 | 0.00 | 75 | 1022.3 |
| 20260902125526 | 74 | 12 | 6.0 | 17.0 | 0.00 | 0.00 | 0.00 | 76 | 1022.3 |
| 20260902125011 | 74 | 23 | 6.0 | 17.0 | 0.00 | 0.00 | 0.00 | 76 | 1022.4 |
| 20260902124519 | 74 | 26 | 8.0 | 18.0 | 0.00 | 0.00 | 0.00 | 74 | 1022.3 |
| 20260902124027 | 74 | 25 | 6.0 | 16.0 | 0.00 | 0.00 | 0.00 | 75 | 1022.4 |
| 20260902123537 | 74 | 92 | 9.0 | 16.0 | 0.00 | 0.00 | 0.00 | 74 | 1022.3 |
| 20260902123024 | 74 | 40 | 8.0 | 17.0 | 0.00 | 0.00 | 0.00 | 74 | 1022.4 |
| 20260902122512 | 75 | 53 | 9.0 | 17.0 | 0.00 | 0.00 | 0.00 | 73 | 1022.4 |
| 20260902122022 | 74 | 45 | 6.0 | 14.0 | 0.00 | 0.00 | 0.00 | 73 | 1022.4 |
| 20260902121509 | 75 | 49 | 6.0 | 14.0 | 0.00 | 0.00 | 0.00 | 73 | 1022.4 |
| 20260902121038 | 75 | 94 | 6.0 | 12.0 | 0.00 | 0.00 | 0.00 | 74 | 1022.4 |
| 20260902120525 | 74 | 61 | 7.0 | 12.0 | 0.00 | 0.00 | 0.00 | 73 | 1022.5 |
| 20260902120013 | 74 | 77 | 6.0 | 15.0 | 0.00 | 0.00 | 0.00 | 74 | 1022.4 |
| 20260902115522 | 74 | 45 | 6.0 | 14.0 | 0.00 | 0.00 | 0.00 | 74 | 1022.5 |
| 20260902115010 | 74 | 62 | 5.0 | 11.0 | 0.00 | 0.00 | 0.00 | 76 | 1022.4 |
| 20260902114518 | 74 | 40 | 5.0 | 11.0 | 0.00 | 0.00 | 0.00 | 78 | 1022.5 |
| 20260902114027 | 73 | 61 | 6.0 | 16.0 | 0.00 | 0.00 | 0.00 | 79 | 1022.4 |
| 20260902113535 | 73 | 62 | 10.0 | 16.0 | 0.00 | 0.00 | 0.00 | 79 | 1022.4 |
| 20260902113023 | 73 | 55 | 6.0 | 15.0 | 0.00 | 0.00 | 0.00 | 79 | 1022.5 |
| 20260902112510 | 73 | 34 | 8.0 | 14.0 | 0.00 | 0.00 | 0.00 | 79 | 1022.5 |
| 20260902112015 | 73 | 22 | 7.0 | 16.0 | 0.00 | 0.00 | 0.00 | 80 | 1022.5 |
| 20260902111524 | 73 | 46 | 9.0 | 16.0 | 0.00 | 0.00 | 0.00 | 79 | 1022.5 |
| 20260902111031 | 73 | 17 | 7.0 | 14.0 | 0.00 | 0.00 | 0.00 | 80 | 1022.5 |
| 20260902110518 | 73 | 57 | 10.0 | 14.0 | 0.00 | 0.00 | 0.00 | 79 | 1022.6 |
| 20260902110026 | 73 | 16 | 6.0 | 12.0 | 0.00 | 0.00 | 0.00 | 79 | 1022.6 |
| 20260902105515 | 73 | 43 | 6.0 | 14.0 | 0.00 | 0.00 | 0.00 | 79 | 1022.4 |
| 20260902105043 | 73 | 30 | 9.0 | 14.0 | 0.00 | 0.00 | 0.00 | 79 | 1022.5 |
| 20260902104511 | 73 | 345 | 9.0 | 14.0 | 0.00 | 0.00 | 0.00 | 79 | 1022.4 |
| 20260902104019 | 73 | 5 | 9.0 | 15.0 | 0.00 | 0.00 | 0.00 | 78 | 1022.5 |
| 20260902103510 | 73 | 46 | 7.0 | 16.0 | 0.00 | 0.00 | 0.00 | 78 | 1022.5 |
| 20260902103018 | 73 | 62 | 11.0 | 16.0 | 0.00 | 0.00 | 0.00 | 77 | 1022.5 |
| 20260902102543 | 72 | 47 | 8.0 | 15.0 | 0.00 | 0.00 | 0.00 | 76 | 1022.5 |
| 20260902102014 | 72 | 23 | 7.0 | 14.0 | 0.00 | 0.00 | 0.00 | 79 | 1022.4 |
| 20260902101539 | 72 | 9 | 9.0 | 14.0 | 0.00 | 0.00 | 0.00 | 78 | 1022.4 |
| 20260902101009 | 72 | 24 | 8.0 | 14.0 | 0.00 | 0.00 | 0.00 | 77 | 1022.3 |
| 20260902100533 | 73 | 15 | 7.0 | 11.0 | 0.00 | 0.00 | 0.00 | 78 | 1022.4 |
| 20260902100019 | 73 | 355 | 7.0 | 11.0 | 0.00 | 0.00 | 0.00 | 78 | 1022.3 |
| 20260902095512 | 73 | 49 | 6.0 | 10.0 | 0.00 | 0.00 | 0.00 | 77 | 1022.3 |
| 20260902095019 | 73 | 46 | 6.0 | 10.0 | 0.00 | 0.00 | 0.00 | 76 | 1022.3 |
| 20260902094528 | 73 | 32 | 5.0 | 9.0 | 0.00 | 0.00 | 0.00 | 77 | 1022.3 |
| 20260902094014 | 73 | 22 | 3.0 | 8.0 | 0.00 | 0.00 | 0.00 | 77 | 1022.1 |
| 20260902093518 | 73 | 72 | 4.0 | 8.0 | 0.00 | 0.00 | 0.00 | 77 | 1022.1 |
| 20260902093009 | 73 | 20 | 5.0 | 9.0 | 0.00 | 0.00 | 0.00 | 76 | 1022.0 |
| 20260902092021 | 73 | 288 | 3.0 | 5.0 | 0.00 | 0.00 | 0.00 | 78 | 1021.9 |
| 20260902091530 | 73 | 286 | 0.0 | 3.0 | 0.00 | 0.00 | 0.00 | 78 | 1021.9 |
| 20260902091015 | 73 | 286 | 1.0 | 4.0 | 0.00 | 0.00 | 0.00 | 80 | 1021.9 |
| 20260902090524 | 73 | 276 | 0.0 | 5.0 | 0.00 | 0.00 | 0.00 | 81 | 1021.8 |
| 20260902090031 | 72 | 299 | 1.0 | 4.0 | 0.00 | 0.00 | 0.00 | 83 | 1021.8 |
| 20260902085518 | 72 | 49 | 0.0 | 4.0 | 0.00 | 0.00 | 0.00 | 85 | 1021.8 |
| 20260902085011 | 71 | 51 | 2.0 | 4.0 | 0.00 | 0.00 | 0.00 | 86 | 1021.7 |
| 20260902084520 | 70 | 59 | 0.0 | 3.0 | 0.00 | 0.00 | 0.00 | 89 | 1021.7 |
| 20260902084023 | 70 | 59 | 0.0 | 4.0 | 0.00 | 0.00 | 0.00 | 91 | 1021.7 |
| 20260902083512 | 69 | 59 | 1.0 | 4.0 | 0.00 | 0.00 | 0.00 | 92 | 1021.7 |
| 20260902083037 | 69 | 59 | 0.0 | 0.0 | 0.00 | 0.00 | 0.00 | 95 | 1021.6 |
| 20260902082508 | 68 | 59 | 0.0 | 0.0 | 0.00 | 0.00 | 0.00 | 96 | 1021.5 |
| 20260902082011 | 68 | 59 | 0.0 | 0.0 | 0.00 | 0.00 | 0.00 | 97 | 1021.5 |
| 20260902081518 | 67 | 59 | 0.0 | 0.0 | 0.00 | 0.00 | 0.00 | 98 | 1021.3 |
| 20260902081010 | 67 | 59 | 0.0 | 0.0 | 0.00 | 0.00 | 0.00 | 100 | 1021.3 |
| 20260902072040 | 64 | 59 | 0.0 | 0.0 | 0.00 | 0.00 | 0.00 | 100 | 1021.2 |
| 20260902070533 | 63 | 59 | 0.0 | 0.0 | 0.00 | 0.00 | 0.00 | 100 | 1021.0 |
| 20260902070041 | 62 | 59 | 0.0 | 0.0 | 0.00 | 0.00 | 0.00 | 100 | 1020.9 |
| 20260902065510 | 62 | 59 | 0.0 | 0.0 | 0.00 | 0.00 | 0.00 | 100 | 1020.9 |
| 20260902065021 | 62 | 59 | 0.0 | 0.0 | 0.00 | 0.00 | 0.00 | 100 | 1020.9 |
| 20260902064515 | 61 | 59 | 0.0 | 0.0 | 0.00 | 0.00 | 0.00 | 100 | 1020.9 |
| 20260902064026 | 61 | 59 | 0.0 | 0.0 | 0.00 | 0.00 | 0.00 | 99 | 1021.0 |
| 20260902063516 | 61 | 59 | 0.0 | 0.0 | 0.00 | 0.00 | 0.00 | 99 | 1020.9 |
| 20260902063026 | 61 | 59 | 0.0 | 0.0 | 0.00 | 0.00 | 0.00 | 99 | 1020.9 |
| 20260902062519 | 61 | 59 | 0.0 | 0.0 | 0.00 | 0.00 | 0.00 | 99 | 1020.9 |
| 20260902062011 | 61 | 59 | 0.0 | 0.0 | 0.00 | 0.00 | 0.00 | 99 | 1021.0 |
| 20260902061522 | 61 | 59 | 0.0 | 0.0 | 0.00 | 0.00 | 0.00 | 99 | 1020.8 |
| 20260902061016 | 61 | 59 | 0.0 | 0.0 | 0.00 | 0.00 | 0.00 | 99 | 1020.8 |
| 20260902060529 | 61 | 59 | 0.0 | 0.0 | 0.00 | 0.00 | 0.00 | 99 | 1020.8 |
| 20260902060021 | 61 | 59 | 0.0 | 0.0 | 0.00 | 0.00 | 0.00 | 99 | 1020.8 |
| 20260902055530 | 61 | 59 | 0.0 | 0.0 | 0.00 | 0.00 | 0.00 | 99 | 1020.8 |
| 20260902055038 | 61 | 59 | 0.0 | 0.0 | 0.00 | 0.00 | 0.00 | 99 | 1020.9 |
| 20260902054526 | 61 | 59 | 0.0 | 0.0 | 0.00 | 0.00 | 0.00 | 99 | 1020.8 |
| 20260902054016 | 61 | 59 | 0.0 | 0.0 | 0.00 | 0.00 | 0.00 | 99 | 1020.8 |
| 20260902053526 | 61 | 59 | 0.0 | 0.0 | 0.00 | 0.00 | 0.00 | 99 | 1020.7 |
| 20260902053014 | 61 | 59 | 0.0 | 0.0 | 0.00 | 0.00 | 0.00 | 99 | 1020.6 |
| 20260902052523 | 61 | 59 | 0.0 | 0.0 | 0.00 | 0.00 | 0.00 | 99 | 1020.7 |
| 20260902052032 | 61 | 59 | 0.0 | 0.0 | 0.00 | 0.00 | 0.00 | 99 | 1020.7 |
| 20260902051521 | 61 | 59 | 0.0 | 0.0 | 0.00 | 0.00 | 0.00 | 99 | 1020.7 |
| 20260902051012 | 61 | 59 | 0.0 | 0.0 | 0.00 | 0.00 | 0.00 | 99 | 1020.7 |
| 20260902050541 | 61 | 59 | 0.0 | 0.0 | 0.00 | 0.00 | 0.00 | 99 | 1020.6 |
| 20260902050029 | 61 | 59 | 0.0 | 0.0 | 0.00 | 0.00 | 0.00 | 99 | 1020.6 |
| 20260902045516 | 61 | 59 | 0.0 | 0.0 | 0.00 | 0.00 | 0.00 | 98 | 1020.6 |
| 20260902045027 | 61 | 59 | 0.0 | 0.0 | 0.00 | 0.00 | 0.00 | 98 | 1020.6 |
| 20260902044516 | 61 | 59 | 0.0 | 0.0 | 0.00 | 0.00 | 0.00 | 98 | 1020.7 |
| 20260902044024 | 61 | 59 | 0.0 | 0.0 | 0.00 | 0.00 | 0.00 | 98 | 1020.7 |
| 20260902043514 | 61 | 59 | 0.0 | 0.0 | 0.00 | 0.00 | 0.00 | 98 | 1020.7 |
| 20260902043022 | 61 | 59 | 0.0 | 0.0 | 0.00 | 0.00 | 0.00 | 98 | 1020.7 |
| 20260902042512 | 61 | 59 | 0.0 | 0.0 | 0.00 | 0.00 | 0.00 | 98 | 1020.7 |
| 20260902042022 | 61 | 59 | 0.0 | 0.0 | 0.00 | 0.00 | 0.00 | 98 | 1020.7 |
| 20260902041512 | 61 | 59 | 0.0 | 0.0 | 0.00 | 0.00 | 0.00 | 98 | 1020.8 |
| 20260902041023 | 61 | 59 | 0.0 | 0.0 | 0.00 | 0.00 | 0.00 | 98 | 1020.8 |
| 20260902040533 | 61 | 59 | 0.0 | 0.0 | 0.00 | 0.00 | 0.00 | 98 | 1020.8 |
| 20260902040021 | 61 | 59 | 0.0 | 0.0 | 0.00 | 0.00 | 0.00 | 98 | 1020.7 |
| 20260902035514 | 61 | 59 | 0.0 | 0.0 | 0.00 | 0.00 | 0.00 | 97 | 1020.8 |
| 20260902035026 | 61 | 59 | 0.0 | 0.0 | 0.00 | 0.00 | 0.00 | 97 | 1020.6 |
| 20260902034517 | 61 | 59 | 0.0 | 0.0 | 0.00 | 0.00 | 0.00 | 97 | 1020.7 |
| 20260902034010 | 61 | 59 | 0.0 | 0.0 | 0.00 | 0.00 | 0.00 | 97 | 1020.7 |
| 20260902033523 | 61 | 59 | 0.0 | 0.0 | 0.00 | 0.00 | 0.00 | 97 | 1020.6 |
| 20260902033014 | 61 | 59 | 0.0 | 0.0 | 0.00 | 0.00 | 0.00 | 97 | 1020.7 |
| 20260902032526 | 61 | 59 | 0.0 | 0.0 | 0.00 | 0.00 | 0.00 | 97 | 1020.8 |
| 20260902032018 | 61 | 59 | 0.0 | 0.0 | 0.00 | 0.00 | 0.00 | 97 | 1020.8 |
| 20260902031528 | 61 | 59 | 0.0 | 0.0 | 0.00 | 0.00 | 0.00 | 97 | 1020.8 |
| 20260902031018 | 61 | 59 | 0.0 | 0.0 | 0.00 | 0.00 | 0.00 | 97 | 1020.8 |
| 20260902030513 | 61 | 59 | 0.0 | 0.0 | 0.00 | 0.00 | 0.00 | 97 | 1020.7 |
| 20260902030026 | 62 | 59 | 0.0 | 0.0 | 0.00 | 0.00 | 0.00 | 97 | 1020.7 |
| 20260902025536 | 62 | 59 | 0.0 | 0.0 | 0.00 | 0.00 | 0.00 | 97 | 1020.7 |
| 20260902025028 | 62 | 59 | 0.0 | 0.0 | 0.00 | 0.00 | 0.00 | 96 | 1020.6 |
| 20260902024519 | 62 | 59 | 0.0 | 0.0 | 0.00 | 0.00 | 0.00 | 96 | 1020.7 |
| 20260902024011 | 62 | 59 | 0.0 | 0.0 | 0.00 | 0.00 | 0.00 | 96 | 1020.7 |
| 20260902023523 | 62 | 59 | 0.0 | 0.0 | 0.00 | 0.00 | 0.00 | 96 | 1020.8 |
| 20260902023016 | 62 | 59 | 0.0 | 0.0 | 0.00 | 0.00 | 0.00 | 96 | 1020.7 |
| 20260902022527 | 62 | 59 | 0.0 | 0.0 | 0.00 | 0.00 | 0.00 | 96 | 1020.7 |
| 20260902022019 | 62 | 59 | 0.0 | 0.0 | 0.00 | 0.00 | 0.00 | 96 | 1020.6 |
| 20260902021549 | 62 | 59 | 0.0 | 0.0 | 0.00 | 0.00 | 0.00 | 96 | 1020.7 |
| 20260902021018 | 62 | 59 | 0.0 | 0.0 | 0.00 | 0.00 | 0.00 | 96 | 1020.6 |
| 20260902020510 | 62 | 59 | 0.0 | 0.0 | 0.00 | 0.00 | 0.00 | 96 | 1020.7 |
| 20260902020043 | 62 | 59 | 0.0 | 0.0 | 0.00 | 0.00 | 0.00 | 96 | 1020.7 |
| 20260902015533 | 62 | 59 | 0.0 | 0.0 | 0.00 | 0.00 | 0.00 | 96 | 1020.6 |
| 20260902015023 | 62 | 59 | 0.0 | 0.0 | 0.00 | 0.00 | 0.00 | 96 | 1020.6 |
| 20260902014514 | 62 | 59 | 0.0 | 0.0 | 0.00 | 0.00 | 0.00 | 96 | 1020.7 |
| 20260902014041 | 63 | 59 | 0.0 | 0.0 | 0.00 | 0.00 | 0.00 | 95 | 1020.6 |
| 20260902013511 | 63 | 59 | 0.0 | 0.0 | 0.00 | 0.00 | 0.00 | 95 | 1020.7 |
| 20260902013018 | 63 | 59 | 0.0 | 0.0 | 0.00 | 0.00 | 0.00 | 95 | 1020.8 |
| 20260902012550 | 63 | 59 | 0.0 | 0.0 | 0.00 | 0.00 | 0.00 | 95 | 1020.9 |
| 20260902012021 | 63 | 59 | 0.0 | 0.0 | 0.00 | 0.00 | 0.00 | 95 | 1020.9 |
| 20260902011530 | 63 | 59 | 0.0 | 0.0 | 0.00 | 0.00 | 0.00 | 95 | 1020.8 |
| 20260902011016 | 63 | 59 | 0.0 | 0.0 | 0.00 | 0.00 | 0.00 | 95 | 1020.8 |
| 20260902010526 | 63 | 59 | 0.0 | 0.0 | 0.00 | 0.00 | 0.00 | 95 | 1020.8 |
| 20260902010016 | 63 | 59 | 0.0 | 0.0 | 0.00 | 0.00 | 0.00 | 95 | 1020.8 |
| 20260902005527 | 63 | 59 | 0.0 | 0.0 | 0.00 | 0.00 | 0.00 | 95 | 1020.8 |
| 20260902005039 | 63 | 59 | 0.0 | 0.0 | 0.00 | 0.00 | 0.00 | 94 | 1020.8 |
| 20260902004528 | 63 | 59 | 0.0 | 0.0 | 0.00 | 0.00 | 0.00 | 94 | 1020.8 |
| 20260902004016 | 63 | 59 | 0.0 | 0.0 | 0.00 | 0.00 | 0.00 | 94 | 1020.8 |
| 20260902003529 | 64 | 59 | 0.0 | 0.0 | 0.00 | 0.00 | 0.00 | 94 | 1020.8 |
| 20260902003020 | 64 | 59 | 0.0 | 0.0 | 0.00 | 0.00 | 0.00 | 94 | 1020.8 |
| 20260902002513 | 64 | 59 | 0.0 | 0.0 | 0.00 | 0.00 | 0.00 | 94 | 1020.8 |
| 20260902002022 | 64 | 59 | 0.0 | 0.0 | 0.00 | 0.00 | 0.00 | 94 | 1020.8 |
| 20260902001512 | 64 | 59 | 0.0 | 0.0 | 0.00 | 0.00 | 0.00 | 93 | 1020.8 |
| 20260902001020 | 64 | 59 | 0.0 | 0.0 | 0.00 | 0.00 | 0.00 | 93 | 1020.8 |
| 20260902000527 | 64 | 59 | 0.0 | 0.0 | 0.00 | 0.00 | 0.00 | 93 | 1020.8 |
| 20260902000013 | 64 | 59 | 0.0 | 0.0 | 0.00 | 0.00 | 0.00 | 93 | 1020.9 |
| 20260901235526 | 64 | 59 | 0.0 | 0.0 | 0.00 | 0.00 | 0.00 | 93 | 1020.9 |
| 20260901235019 | 65 | 59 | 0.0 | 0.0 | 0.00 | 0.00 | 0.00 | 93 | 1021.0 |
| 20260901234511 | 65 | 59 | 0.0 | 0.0 | 0.00 | 0.00 | 0.00 | 93 | 1021.0 |
| 20260901234024 | 65 | 59 | 0.0 | 0.0 | 0.00 | 0.00 | 0.00 | 92 | 1021.0 |
| 20260901233514 | 65 | 59 | 0.0 | 0.0 | 0.00 | 0.00 | 0.00 | 92 | 1021.0 |
| 20260901233026 | 65 | 59 | 0.0 | 0.0 | 0.00 | 0.00 | 0.00 | 92 | 1021.0 |
| 20260901232517 | 65 | 59 | 0.0 | 0.0 | 0.00 | 0.00 | 0.00 | 92 | 1021.1 |
| 20260901232028 | 65 | 59 | 0.0 | 0.0 | 0.00 | 0.00 | 0.00 | 92 | 1021.0 |
| 20260901231520 | 65 | 59 | 0.0 | 0.0 | 0.00 | 0.00 | 0.00 | 92 | 1020.9 |
| 20260901231012 | 66 | 59 | 0.0 | 0.0 | 0.00 | 0.00 | 0.00 | 92 | 1020.9 |
| 20260901230524 | 66 | 59 | 0.0 | 0.0 | 0.00 | 0.00 | 0.00 | 92 | 1020.7 |
| 20260901230020 | 66 | 59 | 0.0 | 0.0 | 0.00 | 0.00 | 0.00 | 92 | 1020.8 |
| 20260901225512 | 66 | 59 | 0.0 | 0.0 | 0.00 | 0.00 | 0.00 | 92 | 1020.7 |
| 20260901225044 | 66 | 59 | 0.0 | 0.0 | 0.00 | 0.00 | 0.00 | 92 | 1020.8 |
| 20260901224513 | 66 | 59 | 0.0 | 0.0 | 0.00 | 0.00 | 0.00 | 92 | 1020.9 |
| 20260901224024 | 66 | 59 | 0.0 | 0.0 | 0.00 | 0.00 | 0.00 | 92 | 1020.9 |
| 20260901223518 | 66 | 59 | 0.0 | 0.0 | 0.00 | 0.00 | 0.00 | 92 | 1020.8 |
| 20260901223031 | 67 | 59 | 0.0 | 0.0 | 0.00 | 0.00 | 0.00 | 92 | 1020.8 |
| 20260901222540 | 67 | 59 | 0.0 | 0.0 | 0.00 | 0.00 | 0.00 | 92 | 1020.8 |
| 20260901222012 | 67 | 59 | 0.0 | 0.0 | 0.00 | 0.00 | 0.00 | 92 | 1020.9 |
| 20260901221523 | 67 | 59 | 0.0 | 0.0 | 0.00 | 0.00 | 0.00 | 92 | 1020.9 |